EST,Max TemperatureF,Mean TemperatureF,Min TemperatureF,Max Dew PointF,MeanDew PointF,Min DewpointF,Max Humidity, Mean Humidity, Min Humidity, Max Sea Level PressureIn, Mean Sea Level PressureIn, Min Sea Level PressureIn, Max VisibilityMiles, Mean VisibilityMiles, Min VisibilityMiles, Max Wind SpeedMPH, Mean Wind SpeedMPH, Max Gust SpeedMPH,PrecipitationIn, CloudCover, Events, WindDirDegrees
2012-11-1,48,42,37,38,35,27,93,77,54,29.82,29.75,29.71,10,10,9,16,11,23,0.00,7,Rain,278
2012-11-2,45,40,35,33,30,28,79,69,58,30.07,29.95,29.81,10,10,10,15,7,20,0.00,7,,301
2012-11-3,45,38,32,33,30,27,86,70,58,30.19,30.14,30.08,10,10,10,10,4,,0.00,3,,348
2012-11-4,39,34,30,34,29,25,89,75,65,30.19,30.16,30.14,10,10,9,9,6,,0.00,7,,353
2012-11-5,43,34,26,29,26,22,92,73,51,30.21,30.17,30.15,10,10,7,9,2,,0.00,3,,68
2012-11-6,45,36,26,29,27,23,88,73,53,30.14,30.04,29.94,10,10,7,9,6,,0.00,0,,88
2012-11-7,50,40,30,37,33,26,100,82,50,30.13,30.00,29.93,10,7,2,14,6,17,0.00,3,,31
2012-11-8,48,37,26,36,30,25,100,83,54,30.24,30.17,30.13,10,6,1,8,2,,0.00,1,,264
2012-11-9,57,42,27,45,36,25,96,76,47,30.22,30.15,30.08,10,6,2,14,6,18,0.26,3,Rain-Thunderstorm,180
2012-11-10,66,57,48,48,45,42,83,66,50,30.15,30.10,30.05,10,10,8,15,9,,0.00,4,,178
2012-11-11,68,60,51,43,39,37,66,49,34,30.19,30.10,29.99,10,10,10,26,14,38,0.00,0,,183
2012-11-12,61,46,32,52,39,25,96,85,54,30.33,30.08,29.94,10,8,2,24,18,31,0.59,7,Rain-Snow,243
2012-11-13,36,33,30,29,26,24,85,75,62,30.54,30.45,30.34,10,10,10,9,7,,0.00,7,Snow,252
2012-11-14,39,32,26,28,26,23,92,75,57,30.58,30.51,30.41,10,9,5,9,3,,0.00,0,,74
2012-11-15,43,34,25,30,27,23,92,76,53,30.41,30.37,30.33,10,8,4,6,1,,0.00,0,,36
2012-11-16,51,38,24,33,28,24,100,81,39,30.51,30.42,30.36,10,5,1,6,2,,0.00,0,,4
2012-11-17,54,40,26,36,30,25,100,78,43,30.61,30.55,30.50,10,6,0,9,2,,0.00,0,Fog,85
2012-11-18,55,44,33,34,31,28,92,70,34,30.50,30.45,30.40,10,8,3,8,5,,0.00,0,,94
2012-11-19,57,44,30,37,32,27,92,66,36,30.39,30.30,30.17,10,10,7,7,3,,0.00,0,,144
2012-11-20,55,47,39,40,37,35,86,66,49,30.16,30.12,30.07,10,10,9,6,3,,0.00,6,,139
2012-11-21,60,46,33,41,37,33,100,80,44,30.23,30.19,30.13,10,6,1,7,1,,0.00,1,,201
2012-11-22,62,49,36,43,39,34,93,71,50,30.19,30.08,29.89,10,8,3,21,9,,0.00,1,,190
2012-11-23,54,42,30,49,33,21,89,78,62,30.09,29.92,29.80,10,10,6,28,21,41,0.06,6,Rain,251
2012-11-24,30,29,28,27,24,20,88,79,69,30.16,30.12,30.08,10,9,3,20,15,26,0.00,8,Snow,262
2012-11-25,43,36,28,27,24,21,85,69,51,30.09,29.95,29.86,10,10,10,17,9,22,0.00,3,,237
2012-11-26,39,32,26,30,26,21,92,74,61,30.28,30.17,30.03,10,9,5,10,3,,0.00,4,,319
2012-11-27,35,29,23,24,20,17,89,69,50,30.38,30.31,30.27,10,10,8,8,6,,0.00,3,,287
2012-11-28,39,32,25,27,23,20,84,71,55,30.37,30.33,30.27,10,10,8,15,9,,0.00,2,,246
2012-11-29,46,36,25,29,26,21,85,70,47,30.35,30.29,30.22,10,9,6,17,8,22,0.00,1,,197
2012-11-30,52,42,32,35,31,27,82,64,45,30.22,30.17,30.11,10,10,10,12,6,,0.00,3,,163